Regional Weather Roundup
Issued by NWS

Home | Current Version | Previous Version | Text Only | Print | Product List | Glossary On
Versions: 1 2 3 4 5 6 7 8 9 10 11 12 13 14 15 16 17 18 19 20 21 22 23 24 25 26 27 28 29 30 31 32 33 34 35 36 37 38 39 40 41 42 43 44 45 46 47 48 49 50
000
ASUS43 KMPX 301701
RWRMN
WEATHER ROUNDUP FOR MINNESOTA
NATIONAL WEATHER SERVICE TWIN CITIES/CHANHASSEN MN
1200 PM CDT THU JUL 30 2015


NOTE: "FAIR" INDICATES FEW OR NO CLOUDS BELOW 12,000 FEET WITH NO
SIGNIFICANT WEATHER AND/OR OBSTRUCTIONS TO VISIBILITY. N/A MEANS
CURRENT SKY AND/OR WEATHER CONDITIONS ARE NOT AVAILABLE.

MNZ060>063-068>070-301800-
   Twin Cities Metro

CITY           SKY/WX    TMP DP  RH WIND       PRES   REMARKS
TWIN CITIES    SUNNY     82  57  42 W15       30.05R
ST PAUL        SUNNY     81  57  43 NW17G28   30.05R
CRYSTAL        SUNNY     82  58  43 W13G20    30.04R
BLAINE         SUNNY     81  59  47 W14G23    30.05R
LAKEVILLE      SUNNY     79  57  47 W14G23    30.07R
EDEN PRAIRIE   SUNNY     82  57  42 W16G23    30.06R
SOUTH ST PAUL  SUNNY     82  53  37 W13G20    30.05R
LAKE ELMO      FAIR      79  59  50 W17G25    30.06R
$$
MNZ001>005-007-008-013>017-022>024-027-028-301800-
   Northwest Minnesota

CITY           SKY/WX    TMP DP  RH WIND       PRES   REMARKS
BEMIDJI        SUNNY     76  56  50 W20G25    30.01R
HALLOCK        SUNNY     79  57  47 NW13      29.96S
ROSEAU         SUNNY     73  63  68 W14       29.94S
WARROAD        SUNNY     73  63  68 W14       29.93S
THIEF RVR FALL SUNNY     73  57  56 W13G18    30.00S
CROOKSTON      SUNNY     77  55  47 NW18G24   30.01S
FOSSTON        SUNNY     73  57  56 W12G17    30.03R
DETROIT LAKES  SUNNY     73  55  53 W14       30.07S
MOORHEAD       MOSUNNY   73  59  60 NW13      30.06F
PARK RAPIDS    PTSUNNY   78  54  43 NW20      30.04S
MAHNOMEN       FAIR      73  58  59 NW10G23   30.04R
$$
MNZ006-009>011-018-025>026-301800-
   North Central Minnesota

CITY           SKY/WX    TMP DP  RH WIND       PRES   REMARKS
BAUDETTE       MOSUNNY   74  57  55 W15G23    29.92S
FLAG ISLAND    MOSUNNY   72  57  60 NW15      29.89S
INTL FALLS     MOSUNNY   72  59  63 W12       29.92R
WASKISH        MOSUNNY   73  63  68 SW15      29.96R
BIG FORK       MOSUNNY   75  57  53 W8G18     29.96S
LONGVILLE      MOSUNNY   77  57  50 W9G16     30.01R
GRAND RAPIDS   MOSUNNY   75  55  50 W12G17    29.99R
CRANE LAKE     PTSUNNY   72  54  53 W5        29.93S
ORR            PTSUNNY   70  57  64 NW7       29.92F
COOK           PTSUNNY   70  61  73 W6        29.95F
WALKER         FAIR      74  57  54 W12G18    30.01S
$$
MNZ012-019>021-037-301800-
   Northeast Minnesota

CITY           SKY/WX    TMP DP  RH WIND       PRES   REMARKS
DULUTH         MOSUNNY   78  58  49 W16G23    29.96S
ELY            MOSUNNY   73  54  49 W10G22    29.92F
HIBBING        MOSUNNY   75  58  55 W12G22    29.95S
EVELETH        MOSUNNY   77  57  50 W14G20    29.95F THUNDER
DULUTH HARBOR  MOSUNNY   79  59  50 W16G22    29.94S
TWO HARBORS    PTSUNNY   79  61  53 W10G17    29.92S
SILVER BAY     SUNNY     79  54  41 W6G20     29.91R
GRAND MARAIS     N/A     78  51  38 W9G21     29.85S
G MARAIS ARPRT SUNNY     70  48  46 W9G17     29.91R
$$
MNZ029>031-032-039>041-046>048-054>057-064-301800-
   West Central Minnesota

CITY           SKY/WX    TMP DP  RH WIND       PRES   REMARKS
FERGUS FALLS   MOSUNNY   75  59  57 NW9       30.08R
WHEATON        SUNNY     75  57  53 W12       30.12R
MORRIS         SUNNY     79  61  53 NW9       30.10R
ALEXANDRIA     SUNNY     77  57  50 NW15      30.11R
ELBOW LAKE     FAIR      75  59  56 NW13      30.10R
WADENA         MOSUNNY   75  54  46 W14G23    30.06R
GLENWOOD       SUNNY     79  57  47 NW17G23   30.11R
APPLETON       SUNNY     82  55  39 NW10      30.10R
BENSON         SUNNY     81  55  41 N9        30.10R
ORTONVILLE     SUNNY     81  54  39 NW8       30.11R
MADISON        SUNNY     82  48  30 NW7       30.11R
WILLMAR        FAIR      81  61  50 W13G18    30.12R
$$
MNZ033>034-036-042>043-049>051-058-059-301800-
   Central Minnesota

CITY           SKY/WX    TMP DP  RH WIND       PRES   REMARKS
ST CLOUD       SUNNY     80  57  45 NW17G24   30.06R
SAUK CENTRE    FAIR      76  57  50 W14G22    30.09R
PAYNESVILLE    SUNNY     77  56  48 SW14G21   30.10R
AITKIN         SUNNY     79  59  50 W14G22    30.01R
PINE RIVER     SUNNY     77  55  47 W14G22    30.05S
BRAINERD       MOSUNNY   78  55  44 W14G29    30.03S
STAPLES        MOSUNNY   77  52  41 W16G24    30.05S
LONG PRAIRIE   FAIR      77  55  47 W12G24    30.08S
LITTLE FALLS   SUNNY     77  52  41 W13G22    30.06R
LITCHFIELD     SUNNY     79  57  47 W13G18    30.10R
BUFFALO        SUNNY     79  57  47 W10       30.08R
MAPLE LAKE     SUNNY     79  61  53 W13       30.08R
$$
MNZ037-044-045-052-053-301800-
   East Central Minnesota

CITY           SKY/WX    TMP DP  RH WIND       PRES   REMARKS
PRINCETON      SUNNY     81  61  50 W14       30.05R
MORA           SUNNY     77  55  47 NW8G20    30.04R
CAMBRIDGE      SUNNY     81  61  50 W15       30.03R
RUSH CITY      SUNNY     79  60  52 W10G16    30.03R
MOOSE LAKE     MOSUNNY   79  57  47 W9G18     29.98R
HINCKLEY       FAIR      79  61  53 W14G23    30.01S
CLOQUET        PTSUNNY   79  54  41 W21G31    29.97S
MCGREGOR       MOSUNNY   79  57  47 W10G17    30.00S
$$
MNZ071>073-080-081-089-090-097-098-301800-
   Southwest Minnesota

CITY           SKY/WX    TMP DP  RH WIND       PRES   REMARKS
MONTEVIDEO     SUNNY     82  63  51 N7        30.13R
GRANITE FALLS  SUNNY     80  59  48 W7        30.14R
CANBY          SUNNY     82  51  34 NW7       30.14R
MARSHALL       SUNNY     81  52  36 NW7       30.15R
REDWOOD FALLS  SUNNY     83  55  38 NW13      30.11R
OLIVIA         SUNNY     77  57  50 W9        30.11R
PIPESTONE      SUNNY     79  57  47 NW7       30.17R
WINDOM         SUNNY     81  59  47 NW10      30.15R
WORTHINGTON    SUNNY     79  61  53 W8        30.16R
JACKSON        SUNNY     81  59  47 NW9G18    30.16R
TRACY          SUNNY     81  59  47 NW9       30.15R
SLAYTON        SUNNY     81  57  44 CALM      30.16S
$$
MNZ065>067-074>077-082>085-091>093-301800-
   South Central Minnesota

CITY           SKY/WX    TMP DP  RH WIND       PRES   REMARKS
MANKATO        SUNNY     81  57  44 NW13G18   30.10S
NEW ULM        SUNNY     81  55  41 NW10      30.11R
ST JAMES       SUNNY     81  61  50 W13       30.13R
FAIRMONT       SUNNY     81  55  41 NW12      30.13R
GLENCOE        SUNNY     80  60  51 W15       30.09R
FARIBAULT      SUNNY     79  59  50 W13G22    30.09S
OWATONNA       SUNNY     79  57  47 W16       30.10R
WASECA         SUNNY     77  59  53 W10G20    30.12R
ALBERT LEA     SUNNY     81  57  44 W13G20    30.12R
$$
MNZ078>079-086>088-094>096-301800-
   Southeast Minnesota

CITY           SKY/WX    TMP DP  RH WIND       PRES   REMARKS
ROCHESTER      SUNNY     77  61  57 W14G21    30.11R
RED WING       SUNNY     82  55  39 NW12G20   30.03S
STANTON        SUNNY     80  59  48 W13G20    30.07R
DODGE CENTER   SUNNY     79  57  47 W14G20    30.10R
WINONA         SUNNY     81  54  39 W12G18    30.05S
AUSTIN         SUNNY     81  55  41 NW13G21   30.11R
PRESTON        SUNNY     78  58  49 W14       30.11R
$$
ABBREVIATIONS USED IN REMARKS
   TC - TEMPERATURES IN CELSIUS
  WCI - WIND CHILL INDEX
   HX - HEAT INDEX
  VSB - VISIBILITY
$$


USA.gov is the U.S. government's official web portal to all federal, state and local government web resources and services.